Location: Blandford
(50.8667°N, 2.1667°W)
Time: 11:27:35
(UTC+00:00)

FALCON 9 DEB - Pass Details

Date: 09 April 2020
Orbit: 429 x 442 km, 53.0° (Epoch: 27 May)

Event Time Altitude Azimuth Distance (km) Brightness Sun altitude
Rises 19:25:58 0° 212° (SSW) 2,422 7.1 -5.5°
Reaches altitude 10° 19:28:19 10° 199° (SSW) 1,555 5.9 -5.8°
Maximum altitude 19:31:14 25° 142° (SE) 933 4.3 -6.3°
Drops below altitude 10° 19:34:10 10° 85° (E) 1,560 5.4 -6.7°
Enters shadow 19:35:16 - 78° (ENE) 1,958 5.9 -6.9°
